Temperature
8 9 9 9 9 9 9 9 9 9 9 9 9 9 9 8 8 8 8 8 8 8 7 7 7 7 7 6 6 6 6 5 5 4 4 4 3 3 2 2 2 1 1
8 8 8 8 8 8 8 8 8 8 8 8 8 8 8 7 7 7 7 7 7 7 7 6 6 6 6 6 5 5 5 5 4 4 3 3 2 2 2 1 1 0 -0
7 7 7 7 7 7 7 7 7 7 7 7 7 7 7 7 7 6 6 6 6 6 6 5 5 5 5 5 4 4 4 3 3 3 2 2 1 1 1 0 -0 -1 -1
6 6 6 6 6 6 6 6 6 6 6 6 6 6 6 6 6 6 5 5 5 5 5 4 4 4 4 3 3 3 2 2 2 1 1 1 0 -0 -0 -1 -1 -1 -2
5 5 5 5 5 5 5 5 5 5 5 5 5 5 5 5 4 4 4 4 4 3 3 3 3 2 2 2 2 1 1 1 1 0 -0 -1 -1 -1 -2 -2 -2 -3 -3
5 4 4 4 4 4 4 4 4 4 4 3 3 3 3 3 3 3 3 3 3 2 2 2 1 1 1 1 0 0 0 -0 -1 -1 -2 -2 -2 -3 -3 -3 -4 -4 -4
4 3 3 3 3 3 3 3 3 3 2 2 2 2 3 2 2 2 2 2 2 1 1 1 1 0 -0 -0 -0 -1 -1 -2 -2 -2 -3 -3 -4 -4 -4 -4 -5 -5 -5
3 3 3 3 3 2 2 2 2 2 2 2 1 1 2 2 1 1 1 1 1 1 0 -0 -0 -1 -1 -1 -1 -2 -2 -2 -3 -3 -4 -4 -4 -5 -5 -5 -5 -5 -5
2 2 2 2 2 2 1 1 1 1 1 1 1 1 1 1 0 0 0 0 -0 -0 -1 -1 -1 -2 -2 -2 -2 -3 -3 -3 -4 -4 -5 -5 -5 -6 -6 -6 -6 -6 -5
2 1 1 1 1 1 1 1 1 0 0 0 0 0 -0 -0 -0 -0 -1 -1 -1 -1 -2 -2 -2 -3 -3 -3 -3 -3 -4 -4 -4 -5 -5 -5 -5 -6 -6 -6 -6 -6 -7
1 1 1 1 0 0 0 0 0 -0 -0 -0 -0 -0 -1 -1 -1 -1 -1 -1 -2 -2 -2 -2 -3 -3 -4 -4 -4 -4 -5 -5 -5 -5 -5 -5 -6 -6 -6 -6 -6 -7 -7
1 0 0 0 0 0 -0 -0 -0 -0 -0 -0 -1 -1 -1 -1 -1 -1 -2 -2 -2 -2 -3 -3 -3 -4 -4 -4 -5 -5 -5 -6 -6 -6 -6 -6 -6 -6 -6 -6 -6 -6 -7
0 0 0 0 0 -0 -0 -0 -0 -0 -1 -1 -1 -1 -1 -1 -2 -2 -2 -2 -3 -3 -3 -4 -4 -4 -5 -5 -5 -5 -6 -6 -6 -6 -6 -6 -6 -6 -6 -6 -6 -6 -6
0 0 0 0 0 -0 -0 -0 -1 -1 -1 -1 -1 -1 -1 -2 -2 -2 -3 -3 -3 -3 -4 -4 -4 -5 -5 -5 -6 -6 -6 -6 -6 -6 -6 -6 -6 -6 -6 -6 -6 -6 -6
0 0 -0 -0 -0 -0 -0 -1 -1 -1 -1 -1 -1 -1 -2 -2 -2 -2 -3 -3 -3 -4 -4 -4 -5 -5 -5 -6 -6 -6 -6 -7 -7 -7 -7 -7 -7 -7 -7 -7 -7 -7 -7
0 0 0 0 -0 -0 -0 -1 -1 -1 -1 -1 -1 -2 -2 -2 -2 -3 -3 -3 -4 -4 -4 -4 -5 -5 -6 -6 -6 -6 -6 -7 -7 -7 -7 -7 -7 -7 -7 -7 -7 -8 -8
1 0 0 0 0 -0 -0 -1 -1 -1 -1 -1 -1 -2 -2 -2 -2 -3 -3 -4 -4 -4 -5 -5 -5 -6 -6 -6 -6 -6 -6 -7 -7 -7 -7 -7 -8 -8 -8 -8 -8 -8 -8
0 0 0 0 0 -0 -0 -1 -1 -1 -1 -1 -2 -2 -2 -2 -3 -3 -3 -4 -4 -5 -5 -5 -5 -6 -6 -6 -6 -7 -7 -7 -7 -7 -8 -8 -8 -8 -8 -8 -8 -8 -9
0 0 0 -0 -0 -0 -1 -1 -1 -1 -1 -2 -2 -2 -2 -3 -3 -3 -4 -4 -4 -5 -5 -5 -6 -6 -6 -7 -7 -7 -7 -7 -7 -8 -8 -8 -8 -9 -9 -9 -9 -9 -9
0 0 -0 -0 -0 -0 -1 -1 -1 -1 -1 -2 -2 -2 -2 -3 -3 -3 -4 -4 -5 -5 -5 -6 -6 -6 -7 -7 -7 -7 -7 -7 -8 -8 -8 -8 -8 -9 -9 -9 -9 -9 -9
0 -0 -0 -0 -0 -0 -1 -1 -1 -1 -1 -2 -2 -2 -3 -3 -3 -4 -4 -4 -5 -5 -5 -6 -6 -6 -7 -7 -7 -7 -7 -8 -8 -8 -8 -8 -9 -9 -9 -9 -9 -9 -9
-0 -0 -0 -1 -0 -1 -1 -1 -1 -1 -2 -2 -2 -3 -3 -3 -3 -4 -4 -4 -5 -5 -5 -6 -6 -6 -7 -7 -7 -7 -7 -8 -8 -8 -8 -8 -9 -9 -9 -9 -9 -9 -9
-0 -1 -1 -1 -1 -1 -1 -1 -1 -2 -2 -2 -2 -3 -3 -3 -3 -4 -4 -4 -5 -5 -6 -6 -6 -6 -7 -7 -7 -8 -8 -8 -8 -8 -9 -9 -9 -9 -9 -9 -9 -9 -9
-1 -1 -1 -1 -1 -1 -1 -1 -2 -2 -2 -2 -3 -3 -3 -3 -4 -4 -4 -5 -5 -5 -6 -6 -6 -6 -7 -7 -7 -8 -8 -8 -8 -9 -9 -9 -9 -9 -9 -9 -9 -9 -9
-1 -1 -1 -1 -2 -2 -2 -2 -2 -2 -2 -3 -3 -3 -3 -4 -4 -4 -4 -5 -5 -5 -6 -6 -6 -7 -7 -7 -7 -8 -8 -8 -8 -9 -9 -9 -9 -9 -9 -9 -9 -9 -9
-1 -2 -2 -2 -2 -2 -2 -2 -3 -3 -3 -3 -3 -4 -4 -4 -4 -4 -5 -5 -5 -5 -6 -6 -6 -7 -7 -7 -7 -8 -8 -8 -8 -9 -9 -9 -9 -9 -9 -9 -9 -9 -9
Wind_Speed
5 5 6 6 6 6 6 6 5 6 6 6 6 6 7 7 6 6 6 6 6 6 6 6 6 5 4 4 3 2 2 0 2 1 2 2 2 2 3 4 4 4 4
5 6 6 6 6 7 7 7 6 7 7 7 7 8 8 8 8 8 8 8 8 7 7 7 7 5 6 5 4 4 3 3 1 2 1 1 2 1 2 2 1 2 3
5 6 6 6 7 7 7 7 7 8 8 8 8 9 9 8 9 9 9 9 9 9 8 8 7 7 7 6 6 5 4 4 3 3 2 2 2 1 1 1 0 1 3
6 6 6 6 6 7 7 7 7 8 8 8 8 8 8 9 9 9 9 9 10 9 9 8 7 7 6 6 6 5 5 5 5 4 3 2 2 2 1 1 1 1 2
6 6 6 6 6 7 7 7 8 8 8 8 8 8 7 7 8 9 9 9 9 9 9 8 8 8 8 7 5 4 4 4 3 3 2 2 2 1 1 1 1 2 3
7 6 6 6 6 7 7 7 8 8 8 8 8 8 8 8 12 13 10 8 8 8 8 7 7 8 10 10 9 7 5 3 2 2 1 1 1 1 1 0 0 1 3
7 6 6 6 6 6 7 7 7 7 8 8 8 8 8 10 13 13 13 8 7 7 6 5 5 6 7 6 7 9 8 7 4 2 1 1 1 2 1 1 2 2 4
6 6 6 6 6 6 7 7 6 6 6 6 7 7 6 9 12 12 12 8 6 6 5 5 5 4 3 4 4 5 5 5 4 2 2 3 3 4 4 3 4 3 4
6 6 6 6 7 7 7 6 5 6 6 6 5 6 6 6 9 10 9 5 5 5 4 4 3 3 4 5 4 3 4 4 5 6 4 4 5 6 4 1 1 2 3
7 6 6 6 7 7 6 5 5 5 5 5 5 4 5 4 7 8 8 4 4 3 3 4 4 3 4 4 2 1 2 3 3 4 5 6 7 7 6 1 2 2 2
7 7 7 6 6 6 5 5 5 5 5 5 4 3 3 3 5 6 6 3 3 2 2 2 3 4 5 5 2 1 3 2 1 2 3 4 3 3 3 3 1 3 3
8 7 7 7 6 6 6 5 5 6 5 4 3 2 2 2 3 3 4 4 3 2 0 2 3 5 5 5 3 4 5 3 1 2 2 3 3 3 3 4 6 6 7
8 8 7 7 5 6 6 6 5 4 4 4 3 2 1 1 2 3 3 3 2 1 1 4 4 5 4 4 5 5 3 2 1 2 3 3 3 3 3 4 6 8 10
9 8 7 7 6 5 4 5 5 5 5 4 4 3 2 1 1 1 1 1 2 2 2 3 5 5 3 3 3 3 2 2 1 2 3 3 3 3 4 4 4 5 5
9 8 7 6 6 5 4 4 5 5 6 6 5 4 4 4 4 4 3 2 3 3 2 0 1 2 2 2 2 2 2 2 2 2 3 4 5 5 5 4 4 5 5
9 8 7 6 5 5 5 3 4 5 6 7 7 6 5 5 5 4 4 4 5 4 1 1 1 2 2 3 3 3 3 3 3 3 4 4 5 6 6 5 5 6 7
9 9 7 7 6 6 5 5 4 3 4 5 7 7 6 6 5 5 5 5 5 3 1 2 3 3 3 3 3 3 3 4 3 4 5 5 6 6 6 7 6 7 8
9 10 9 7 7 7 7 6 5 5 4 3 5 8 8 7 6 6 6 4 3 2 2 3 4 4 4 4 4 4 4 5 4 5 5 6 6 7 7 7 7 8 9
10 8 7 7 7 7 6 6 5 5 5 4 3 4 7 7 7 6 5 3 4 4 4 4 4 4 4 4 5 5 5 5 6 6 6 7 6 7 8 8 8 12 12
9 12 10 7 7 7 6 6 6 6 6 5 5 5 4 4 4 4 4 4 4 5 5 5 5 5 5 5 5 5 5 6 6 6 6 7 7 7 9 10 9 9 9
8 9 13 9 7 8 7 7 7 7 6 6 6 6 8 5 6 6 5 5 5 6 6 5 5 5 5 5 5 6 7 6 6 7 7 7 7 8 8 9 10 10 11
8 8 8 8 7 7 7 7 7 7 7 7 5 6 10 6 5 6 6 6 6 6 5 5 5 5 5 6 6 6 7 7 7 7 8 8 8 9 10 10 10 11 11
8 8 8 7 7 10 9 7 7 7 7 7 6 6 6 6 6 6 6 6 5 5 6 6 5 5 8 10 11 8 8 8 8 8 8 9 9 10 10 11 12 13 13
9 9 9 8 8 8 8 8 8 8 8 7 7 7 7 6 6 7 6 6 5 5 7 8 8 9 11 12 12 13 15 15 15 13 12 11 12 11 11 12 13 14 14
8 9 9 9 9 9 8 8 8 8 8 7 7 7 6 6 7 6 6 6 6 6 8 9 10 11 13 15 15 16 17 19 19 17 15 11 13 14 14 15 14 15 15
8 8 8 8 8 8 8 8 8 8 8 8 7 7 6 6 7 6 6 6 6 6 7 9 11 13 15 16 17 19 19 20 21 22 19 13 13 13 14 14 16 15 16
Wind_Direction
63 62 60 52 51 54 55 47 45 42 41 44 44 48 46 41 40 52 54 56 67 62 58 66 63 57 58 49 50 51 42 76 222 87 68 59 75 101 117 129 156 186 234
77 73 66 59 58 57 53 46 48 51 48 49 52 56 54 50 49 56 59 58 65 68 66 72 70 70 65 55 58 56 50 41 112 132 88 77 79 125 107 120 157 212 248
90 82 72 64 64 62 57 53 56 59 56 55 57 60 58 57 58 60 65 65 66 65 64 69 69 73 70 63 61 58 50 49 56 97 85 59 63 75 84 70 20 313 280
98 90 81 72 70 69 65 61 60 62 63 61 62 64 64 64 64 67 71 71 71 67 65 66 66 71 77 74 68 60 58 57 59 72 71 59 54 55 66 35 333 321 291
107 99 91 83 78 75 71 67 64 65 66 64 67 67 69 70 70 75 74 77 76 73 64 59 63 74 82 81 81 71 66 62 58 60 60 48 33 32 18 4 324 328 299
114 109 103 96 88 84 80 78 74 69 66 66 65 66 67 72 79 82 84 76 75 72 67 56 55 54 60 64 71 71 72 73 74 71 58 48 352 335 348 352 336 359 310
119 116 113 109 102 97 96 89 82 78 75 70 65 66 69 76 81 84 86 83 78 74 68 60 58 54 55 46 50 46 40 43 56 120 140 206 235 234 213 260 248 236 248
129 128 127 124 118 111 104 98 91 85 81 78 70 63 65 77 84 87 89 77 74 69 67 70 66 39 57 68 59 42 24 14 17 59 187 228 233 233 218 217 230 253 262
142 143 141 137 133 127 118 111 105 101 92 84 78 68 63 69 85 90 90 75 70 59 53 60 72 34 34 55 65 39 14 349 358 3 348 321 309 310 293 231 272 298 301
154 149 144 143 140 135 129 120 112 111 108 99 84 69 66 57 81 88 92 85 79 60 41 25 21 23 13 31 92 54 339 311 323 343 351 352 351 347 347 352 203 216 260
147 144 143 142 141 139 132 126 125 119 112 105 95 72 58 58 70 81 91 100 103 87 58 4 331 347 349 346 354 237 279 299 318 330 327 330 337 344 349 348 247 192 217
147 148 146 146 149 147 140 136 133 132 129 128 121 101 33 17 44 68 74 91 114 116 134 283 291 319 333 337 334 307 320 357 17 329 323 320 321 317 311 309 296 266 246
152 154 154 154 152 150 151 151 148 149 151 160 162 168 200 335 352 39 48 47 70 128 265 297 309 322 341 340 326 337 10 19 334 314 305 294 285 286 296 302 298 290 279
162 164 163 161 157 156 159 163 165 171 173 178 184 189 198 221 249 281 331 341 342 327 314 322 342 354 6 349 349 2 0 307 283 270 281 285 294 297 300 301 299 304 297
170 172 172 170 164 163 166 177 180 195 189 185 193 188 188 213 231 225 219 231 243 253 264 306 350 349 347 338 331 324 323 329 328 303 294 301 304 304 301 296 290 293 285
176 179 177 170 165 162 156 153 196 194 203 203 196 192 209 218 227 240 258 272 281 282 273 246 282 292 292 297 303 306 303 302 303 300 295 292 296 297 297 292 286 285 287
183 181 179 175 173 173 171 169 174 195 206 206 207 208 212 219 228 243 259 273 279 282 238 247 259 268 273 278 279 281 285 289 288 286 284 284 285 286 287 288 288 286 284
184 187 184 183 181 182 185 186 183 185 197 230 231 226 226 229 236 248 261 269 269 266 234 245 254 260 263 266 269 275 281 285 282 279 279 278 279 281 281 281 282 280 284
186 188 187 182 183 186 187 187 191 198 203 210 221 238 233 236 242 250 255 225 236 249 248 249 249 252 255 258 260 265 270 275 275 275 274 273 274 276 277 276 279 283 286
193 194 186 185 186 187 188 192 198 203 208 212 219 221 215 216 229 243 237 230 237 245 247 249 250 249 249 252 256 260 265 268 272 272 272 272 272 271 274 276 277 279 279
191 193 191 190 194 194 195 200 202 205 211 219 225 224 215 211 224 232 235 237 238 242 245 248 249 250 249 248 250 254 258 263 264 266 269 270 271 272 273 274 275 276 278
190 192 193 196 197 199 201 202 203 209 215 221 226 231 235 225 222 230 235 241 239 238 237 240 246 245 241 241 244 250 256 261 262 260 264 266 268 271 273 273 274 275 276
191 194 197 199 200 208 209 206 208 212 217 220 220 221 227 227 228 233 238 242 242 244 248 245 245 251 255 252 247 242 249 257 258 257 263 269 269 270 270 270 271 275 276
196 199 201 202 203 206 207 210 212 215 217 220 222 224 225 228 233 237 238 241 242 248 253 251 251 254 260 264 263 257 255 259 262 260 256 260 265 268 269 270 271 272 274
200 203 205 206 206 210 211 213 215 217 220 222 223 226 227 229 234 238 239 238 243 249 256 258 258 260 263 266 268 269 271 273 272 268 263 260 263 264 267 269 271 273 273
204 207 209 208 208 209 211 214 217 217 221 225 225 225 226 229 234 238 240 241 246 251 257 262 261 264 268 272 275 277 278 280 280 279 277 272 270 270 271 273 274 274 276
Height
1492 1492 1493 1493 1493 1492 1492 1492 1492 1492 1491 1491 1490 1490 1490 1489 1489 1489 1488 1488 1488 1488 1488 1488 1488 1488 1488 1488 1488 1488 1487 1487 1486 1485 1485 1485 1485 1485 1485 1486 1487 1488 1489
1490 1490 1490 1490 1490 1490 1489 1489 1489 1488 1488 1488 1487 1487 1486 1486 1486 1485 1485 1485 1485 1485 1485 1485 1485 1485 1484 1484 1484 1484 1483 1483 1483 1482 1482 1481 1481 1482 1482 1483 1483 1484 1484
1487 1487 1487 1487 1487 1487 1486 1486 1486 1486 1485 1485 1484 1484 1484 1483 1483 1483 1482 1482 1482 1482 1482 1482 1481 1481 1481 1481 1481 1480 1480 1480 1479 1479 1479 1479 1479 1479 1479 1480 1480 1480 1480
1485 1485 1485 1484 1484 1484 1484 1484 1484 1483 1483 1483 1482 1482 1481 1481 1481 1480 1480 1480 1480 1479 1479 1479 1479 1479 1479 1478 1478 1478 1478 1477 1477 1477 1477 1476 1477 1477 1477 1477 1476 1476 1476
1482 1482 1482 1482 1482 1482 1482 1482 1482 1482 1481 1481 1481 1480 1480 1479 1479 1479 1479 1478 1478 1478 1478 1478 1478 1478 1477 1477 1477 1476 1476 1476 1475 1475 1475 1474 1474 1474 1474 1473 1473 1473 1473
1480 1480 1480 1480 1480 1480 1481 1481 1481 1481 1481 1481 1480 1480 1479 1479 1479 1478 1478 1478 1478 1478 1477 1477 1477 1477 1477 1476 1476 1475 1475 1474 1474 1473 1473 1472 1472 1472 1471 1471 1470 1470 1469
1477 1478 1478 1478 1479 1479 1479 1480 1480 1480 1481 1481 1480 1480 1480 1479 1479 1479 1479 1479 1478 1478 1478 1477 1477 1477 1476 1476 1475 1474 1473 1473 1472 1472 1471 1471 1470 1469 1469 1468 1468 1467 1466
1476 1476 1476 1477 1477 1478 1479 1479 1480 1480 1481 1481 1481 1480 1480 1480 1480 1479 1479 1479 1479 1478 1478 1477 1476 1476 1475 1474 1473 1473 1472 1471 1470 1469 1469 1468 1468 1467 1466 1466 1465 1463 1462
1474 1474 1475 1476 1476 1477 1478 1479 1480 1481 1481 1481 1481 1481 1481 1480 1480 1480 1480 1479 1478 1478 1477 1476 1475 1475 1474 1473 1472 1471 1470 1469 1468 1468 1467 1466 1465 1465 1464 1463 1462 1461 1458
1472 1473 1474 1475 1476 1477 1478 1479 1480 1481 1481 1482 1481 1481 1481 1481 1480 1480 1479 1479 1478 1477 1476 1475 1474 1473 1472 1471 1470 1469 1468 1467 1467 1466 1465 1464 1463 1462 1461 1460 1459 1458 1456
1470 1471 1473 1474 1476 1477 1478 1479 1480 1481 1481 1482 1482 1482 1481 1481 1480 1480 1479 1478 1477 1476 1475 1474 1473 1472 1471 1470 1468 1467 1466 1465 1464 1464 1463 1462 1461 1460 1459 1457 1456 1455 1453
1469 1470 1472 1474 1475 1477 1478 1479 1480 1481 1481 1481 1481 1481 1481 1480 1480 1479 1478 1477 1476 1475 1474 1472 1471 1470 1469 1468 1467 1466 1465 1464 1463 1461 1460 1459 1458 1457 1456 1454 1452 1451 1449
1468 1469 1471 1473 1475 1476 1478 1479 1479 1480 1480 1481 1481 1480 1480 1479 1479 1478 1477 1476 1474 1473 1472 1471 1469 1468 1467 1466 1465 1464 1462 1461 1460 1459 1458 1456 1455 1453 1452 1450 1448 1446 1445
1466 1468 1470 1472 1474 1475 1477 1478 1479 1479 1479 1479 1479 1479 1478 1478 1477 1476 1475 1474 1473 1471 1470 1469 1467 1466 1465 1464 1463 1461 1460 1459 1457 1456 1454 1453 1451 1450 1448 1446 1444 1441 1439
1465 1467 1469 1471 1473 1474 1475 1476 1477 1478 1478 1478 1478 1477 1477 1476 1475 1474 1473 1472 1470 1469 1468 1467 1465 1464 1463 1461 1460 1459 1457 1456 1454 1453 1451 1449 1447 1446 1444 1442 1439 1437 1434
1463 1465 1467 1469 1471 1472 1474 1475 1475 1476 1476 1476 1476 1475 1475 1474 1473 1472 1471 1469 1468 1467 1465 1464 1462 1461 1460 1458 1457 1455 1454 1452 1451 1449 1447 1445 1443 1441 1439 1437 1435 1432 1429
1460 1463 1465 1467 1469 1470 1471 1472 1473 1474 1473 1473 1473 1473 1472 1471 1470 1469 1468 1467 1465 1464 1462 1461 1459 1458 1456 1455 1453 1452 1450 1449 1447 1445 1443 1441 1439 1437 1434 1432 1430 1427 1424
1458 1460 1462 1464 1466 1467 1469 1470 1470 1470 1471 1470 1470 1470 1469 1468 1467 1466 1465 1463 1462 1460 1459 1457 1456 1454 1453 1451 1449 1448 1446 1445 1443 1441 1439 1437 1434 1432 1430 1427 1425 1422 1419
1454 1456 1459 1461 1463 1464 1465 1466 1467 1467 1467 1467 1467 1466 1466 1465 1464 1463 1461 1460 1458 1457 1455 1453 1452 1450 1449 1447 1445 1444 1442 1440 1438 1436 1434 1432 1430 1427 1425 1422 1420 1417 1414
1450 1453 1455 1457 1459 1460 1461 1462 1463 1463 1463 1463 1463 1463 1462 1461 1460 1459 1457 1456 1454 1452 1451 1449 1447 1446 1444 1443 1441 1439 1437 1436 1434 1432 1429 1427 1425 1422 1420 1417 1414 1411 1408
1445 1448 1450 1452 1454 1455 1456 1457 1458 1459 1459 1459 1458 1458 1457 1456 1455 1454 1453 1451 1449 1448 1446 1444 1443 1441 1440 1438 1436 1434 1432 1431 1429 1426 1424 1422 1419 1417 1414 1411 1408 1405 1402
1440 1442 1444 1446 1448 1450 1451 1452 1453 1453 1453 1454 1453 1453 1452 1451 1450 1449 1448 1446 1445 1443 1441 1439 1438 1436 1434 1433 1431 1429 1427 1425 1423 1421 1418 1416 1413 1410 1408 1405 1402 1399 1395
1434 1436 1438 1440 1442 1444 1445 1446 1447 1447 1448 1448 1448 1448 1447 1446 1445 1444 1442 1441 1440 1438 1436 1434 1432 1431 1429 1427 1425 1423 1421 1419 1417 1415 1412 1409 1407 1404 1401 1398 1395 1392 1388
1427 1429 1431 1433 1435 1437 1438 1439 1440 1441 1442 1442 1442 1442 1441 1440 1439 1438 1437 1436 1434 1432 1431 1429 1427 1425 1423 1422 1420 1418 1415 1413 1411 1408 1406 1403 1400 1397 1394 1391 1387 1384 1381
1421 1423 1425 1426 1428 1430 1431 1432 1433 1434 1435 1435 1436 1436 1435 1434 1434 1432 1431 1430 1428 1427 1425 1423 1421 1419 1417 1416 1414 1411 1409 1407 1404 1402 1399 1396 1393 1390 1387 1383 1380 1376 1373
1415 1416 1418 1419 1421 1422 1424 1425 1426 1427 1428 1429 1429 1429 1429 1428 1427 1426 1425 1424 1422 1421 1419 1417 1415 1413 1411 1409 1407 1405 1402 1400 1398 1395 1392 1389 1386 1382 1379 1376 1372 1368 1364